Flag for U.S.A. Weather past 2 weeks in Springfield, Illinois, U.S.A.

Now
43 °F

Passing clouds.


Feels Like: 43 °F
Forecast: 44 / 64 °F
Wind: No wind

Location: Capital Airport


UV Index: 5 (Moderate)

Visibility: 10 mi


Pressure: 30.30 "Hg

Humidity: 79%

Dew point: 37 °F

Location of SpringfieldLocation

Historic Weather in Springfield

°F

Springfield temperature yesterday

Maximum temperature yesterday: 61 °F (at 12:52 PM)
Minimum temperature yesterday: 44 °F (at 5:52 AM)
Average temperature yesterday: 53 °F

Past Weeks' High & Low Weather Summary

 TemperatureHumidityPressure
High81 °F (Apr 12, 2:52 PM)93% (Apr 3, 3:52 AM)30.29 "Hg (Apr 3, 3:52 AM)
Low30 °F (Apr 15, 4:52 AM)16% (Apr 11, 2:52 PM)29.45 "Hg (Apr 13, 9:52 PM)
Average52 °F58%29.94 "Hg
* Reported Apr 3 3:52 AM — Apr 18 3:52 AM, Springfield, Weather by CustomWeather, © 2014

Note: Actual official high and low records may vary slightly from our data, if they occured in-between our weather recording intervals... More about our weather records

Advertising

Historic Weather Conditions — Data for Previous 24 hours

 ConditionsComfort  
Time TempWeatherWind HumidityBarometerVisibility
3:52 AM
Apr 18
47 °FPassing clouds.No wind71%30.28 "Hg10 mi
2:52 AM47 °FOvercast.No wind71%30.27 "Hg10 mi
1:52 AM49 °FPassing clouds.No wind64%30.27 "Hg10 mi
12:52 AM49 °FOvercast.6 mph66%30.28 "Hg10 mi
11:52 PM
Apr 17
50 °FOvercast.3 mph61%30.29 "Hg10 mi
10:52 PM51 °FClear.7 mph59%30.28 "Hg10 mi
9:52 PM52 °FPassing clouds.5 mph59%30.27 "Hg10 mi
8:52 PM54 °FPassing clouds.7 mph55%30.26 "Hg10 mi
7:52 PM55 °FOvercast.7 mph53%30.26 "Hg10 mi
6:52 PM57 °FOvercast.6 mph49%30.26 "Hg10 mi
5:52 PM59 °FSunny.9 mph44%30.25 "Hg10 mi
4:52 PM60 °FSunny.9 mph42%30.24 "Hg10 mi
3:52 PM61 °FSunny.10 mph39%30.23 "Hg10 mi
2:52 PM61 °FSunny.9 mph41%30.24 "Hg10 mi
1:52 PM60 °FSunny.8 mph41%30.25 "Hg10 mi
12:52 PM61 °FSunny.14 mph38%30.25 "Hg10 mi
11:52 AM59 °FSunny.8 mph39%30.25 "Hg10 mi
10:52 AM58 °FSunny.14 mph39%30.24 "Hg10 mi
9:52 AM56 °FSunny.15 mph40%30.22 "Hg10 mi
8:52 AM51 °FSunny.8 mph48%30.22 "Hg10 mi
7:52 AM47 °FSunny.12 mph54%30.20 "Hg10 mi
6:52 AM44 °FClear.12 mph58%30.17 "Hg10 mi
5:52 AM44 °FClear.15 mph58%30.14 "Hg10 mi
Weather by CustomWeather, © 2014

See weather overview